Newport Airport, OR

12:54 PM PDT on September 21, 2017 (GMT -0700)
Newport Municipal

Weather History for KONP - November, 2012

Change the Weather History Date:

Sunday, November 11, 2012

  Actual Average Record
Temperature  
Mean Temperature 46 °F -  
Max Temperature 50 °F 53 °F 66 °F (2001)
Min Temperature 42 °F 44 °F 33 °F (2000)
Degree Days  
Heating Degree Days 19    
Moisture  
Dew Point 43 °F    
Average Humidity 89    
Maximum Humidity 93    
Minimum Humidity 81    
Precipitation  
Precipitation 0.18 in - - ()
Sea Level Pressure  
Sea Level Pressure 30.21 in    
Wind  
Wind Speed 9 mph (SSE)    
Max Wind Speed 25 mph    
Max Gust Speed 33 mph    
Visibility 10 miles    
Events Rain    
Averages and records for this station are not official NWS values.
T = Trace of Precipitation, MM = Missing Value Source: NWS Daily Summary

Daily Weather History Graph

Daily Weather History Graph

Search for Another Location

Airport or City:

Trip Planner

Search our weather history database for the weather conditions in past years. The results will help you decide how hot, cold, wet, or windy it might be!

Date:

Astronomy

Nov. 11, 2012 Rise Set
Actual Time 7:08 AM PST 4:51 PM PST
Civil Twilight 6:36 AM PST 5:23 PM PST
Nautical Twilight 6:01 AM PST 5:58 PM PST
Astronomical Twilight 5:27 AM PST 6:32 PM PST
Moon 4:24 AM PST (11/11) 3:22 PM PST (11/11)
Length of Visible Light 10h 46m
Length of Day
9h 43m
Waning Crescent, 6% of the Moon is Illuminated
Nov 11
Waning Crescent
Nov 13
New
Nov 20
First Quarter
Nov 28
Full
Dec 6
Last Quarter

Hourly Weather History & Observations

Time (PST) Temp. Windchill Dew Point Humidity Pressure Visibility Wind Dir Wind Speed Gust Speed Precip Events Conditions
12:15 AM 42.8 °F 39.3 °F 41.0 °F 93% 30.23 in 10.0 mi SE 5.8 mph - N/A   Overcast
12:35 AM 42.8 °F 38.0 °F 41.0 °F 93% 30.23 in 10.0 mi SE 8.1 mph - N/A   Overcast
12:55 AM 42.8 °F 37.5 °F 41.0 °F 93% 30.23 in 10.0 mi SSE 9.2 mph - N/A   Overcast
1:15 AM 44.6 °F 39.7 °F 41.0 °F 87% 30.24 in 10.0 mi SSE 9.2 mph 17.3 mph N/A   Light Drizzle
1:35 AM 42.8 °F 38.0 °F 41.0 °F 93% 30.24 in 10.0 mi SE 8.1 mph - N/A Rain Rain
1:55 AM 42.8 °F 39.3 °F 41.0 °F 93% 30.24 in 10.0 mi SE 5.8 mph - N/A Rain Light Rain
2:15 AM 42.8 °F 39.3 °F 41.0 °F 93% 30.23 in 10.0 mi SE 5.8 mph - N/A   Mostly Cloudy
2:35 AM 42.8 °F 39.3 °F 41.0 °F 93% 30.23 in 10.0 mi ESE 5.8 mph - N/A   Overcast
2:55 AM 42.8 °F 39.3 °F 41.0 °F 93% 30.23 in 10.0 mi ESE 5.8 mph - N/A   Scattered Clouds
3:15 AM 42.8 °F 39.3 °F 41.0 °F 93% 30.22 in 10.0 mi SE 5.8 mph - N/A   Scattered Clouds
3:35 AM 42.8 °F 40.1 °F 41.0 °F 93% 30.22 in 10.0 mi SE 4.6 mph - N/A   Mostly Cloudy
3:55 AM 42.8 °F 39.3 °F 41.0 °F 93% 30.22 in 10.0 mi SE 5.8 mph - N/A   Overcast
4:15 AM 42.8 °F 39.3 °F 41.0 °F 93% 30.22 in 10.0 mi SE 5.8 mph - N/A   Overcast
4:35 AM 44.6 °F 40.7 °F 41.0 °F 87% 30.23 in 10.0 mi SE 6.9 mph - N/A   Overcast
4:55 AM 44.6 °F 42.2 °F 41.0 °F 87% 30.23 in 10.0 mi SE 4.6 mph - N/A   Overcast
5:35 AM 44.6 °F 41.4 °F 41.0 °F 87% 30.23 in 10.0 mi SE 5.8 mph - N/A   Overcast
5:55 AM 44.6 °F 41.4 °F 41.0 °F 87% 30.23 in 10.0 mi SSE 5.8 mph - N/A   Overcast
6:15 AM 44.6 °F 42.2 °F 41.0 °F 87% 30.23 in 10.0 mi SE 4.6 mph - N/A   Overcast
6:35 AM 44.6 °F 40.2 °F 41.0 °F 87% 30.23 in 10.0 mi SSE 8.1 mph - N/A   Overcast
6:55 AM 44.6 °F 40.7 °F 41.0 °F 87% 30.23 in 10.0 mi SSE 6.9 mph - N/A   Overcast
7:15 AM 44.6 °F 40.2 °F 41.0 °F 87% 30.23 in 10.0 mi SSE 8.1 mph - N/A   Overcast
7:55 AM 46.4 °F 42.4 °F 41.0 °F 81% 30.23 in 10.0 mi SE 8.1 mph - N/A   Overcast
8:15 AM 46.4 °F 42.9 °F 41.0 °F 81% 30.24 in 10.0 mi SSE 6.9 mph - N/A   Overcast
8:35 AM 46.4 °F 41.9 °F 41.0 °F 81% 30.23 in 10.0 mi SSE 9.2 mph - N/A   Overcast
8:55 AM 46.4 °F 41.1 °F 41.0 °F 81% 30.24 in 10.0 mi SSE 11.5 mph - N/A   Mostly Cloudy
9:15 AM 46.4 °F 41.9 °F 42.8 °F 87% 30.24 in 10.0 mi SSE 9.2 mph 17.3 mph N/A   Overcast
9:35 AM 46.4 °F 41.5 °F 42.8 °F 87% 30.24 in 10.0 mi SSE 10.4 mph - N/A   Drizzle
9:55 AM 46.4 °F 41.5 °F 42.8 °F 87% 30.24 in 10.0 mi SSE 10.4 mph - N/A   Drizzle
10:15 AM 46.4 °F 41.5 °F 42.8 °F 87% 30.24 in 10.0 mi SSE 10.4 mph 16.1 mph N/A Rain Rain
10:35 AM 46.4 °F 41.1 °F 42.8 °F 87% 30.24 in 10.0 mi SSE 11.5 mph - N/A Rain Light Rain
10:55 AM 46.4 °F 40.7 °F 42.8 °F 87% 30.24 in 10.0 mi SSE 12.7 mph 18.4 mph 0.01 in   Drizzle
11:15 AM 46.4 °F 41.5 °F 42.8 °F 87% 30.24 in 10.0 mi SSE 10.4 mph - N/A   Light Drizzle
11:35 AM 46.4 °F 41.9 °F 42.8 °F 87% 30.23 in 10.0 mi SSE 9.2 mph - N/A   Light Drizzle
11:55 AM 46.4 °F 41.5 °F 42.8 °F 87% 30.23 in 10.0 mi SSE 10.4 mph 16.1 mph N/A Rain Rain
12:15 PM 46.4 °F 42.4 °F 42.8 °F 87% 30.22 in 10.0 mi SSE 8.1 mph - N/A   Drizzle
12:35 PM 46.4 °F 42.4 °F 44.6 °F 93% 30.22 in 10.0 mi SSE 8.1 mph 16.1 mph N/A Rain Light Rain
12:55 PM 46.4 °F 42.4 °F 44.6 °F 93% 30.22 in 10.0 mi SSE 8.1 mph - 0.01 in Rain Light Rain
1:15 PM 46.4 °F 41.1 °F 44.6 °F 93% 30.22 in 10.0 mi SSE 11.5 mph - 0.01 in Rain Light Rain
1:35 PM 46.4 °F 41.9 °F 44.6 °F 93% 30.21 in 10.0 mi SSE 9.2 mph - 0.02 in Rain Light Rain
1:55 PM 48.2 °F - 44.6 °F 87% 30.21 in 10.0 mi South 16.1 mph 26.5 mph 0.03 in Rain Light Rain
2:15 PM 48.2 °F - 44.6 °F 87% 30.21 in 10.0 mi South 12.7 mph 23.0 mph N/A Rain Light Rain
2:35 PM 48.2 °F - 44.6 °F 87% 30.20 in 10.0 mi South 11.5 mph 17.3 mph N/A Rain Rain
2:55 PM 48.2 °F - 44.6 °F 87% 30.20 in 10.0 mi SSE 10.4 mph - 0.01 in Rain Rain
3:15 PM 46.4 °F 41.1 °F 44.6 °F 93% 30.20 in 10.0 mi SSE 11.5 mph 16.1 mph N/A Rain Light Rain
3:35 PM 46.4 °F 41.1 °F 44.6 °F 93% 30.20 in 10.0 mi SSE 11.5 mph 16.1 mph 0.01 in Rain Light Rain
3:55 PM 46.4 °F 40.7 °F 44.6 °F 93% 30.20 in 10.0 mi South 12.7 mph 19.6 mph 0.02 in Rain Light Rain
4:15 PM 46.4 °F 41.1 °F 44.6 °F 93% - 10.0 mi SSE 11.5 mph 19.6 mph 0.02 in Rain Light Rain
4:35 PM 46.4 °F 41.1 °F 44.6 °F 93% 30.19 in 10.0 mi SSE 11.5 mph 18.4 mph 0.03 in Rain Light Rain
4:55 PM 46.4 °F 40.7 °F 44.6 °F 93% 30.19 in 10.0 mi South 12.7 mph 19.6 mph 0.03 in Rain Rain
5:15 PM 46.4 °F 41.5 °F 44.6 °F 93% 30.18 in 10.0 mi SSE 10.4 mph - N/A Rain Light Rain
5:35 PM 46.4 °F 41.5 °F 44.6 °F 93% 30.18 in 10.0 mi South 10.4 mph 19.6 mph 0.01 in Rain Light Rain
5:55 PM 46.4 °F 41.1 °F 44.6 °F 93% 30.18 in 10.0 mi SSE 11.5 mph 18.4 mph 0.01 in Rain Light Rain
6:15 PM 46.4 °F 42.4 °F 44.6 °F 93% 30.18 in 10.0 mi SSE 8.1 mph 16.1 mph 0.01 in Rain Rain
6:35 PM 46.4 °F 40.7 °F 44.6 °F 93% 30.18 in 10.0 mi SSE 12.7 mph 17.3 mph 0.01 in Rain Light Rain
6:55 PM 46.4 °F 41.1 °F 44.6 °F 93% 30.17 in 10.0 mi SSE 11.5 mph 16.1 mph 0.02 in Rain Light Rain
7:15 PM 46.4 °F 41.1 °F 44.6 °F 93% 30.17 in 10.0 mi South 11.5 mph 17.3 mph 0.01 in   Light Drizzle
7:35 PM 46.4 °F 40.4 °F 44.6 °F 93% 30.16 in 10.0 mi SSE 13.8 mph 18.4 mph 0.01 in Rain Light Rain
7:55 PM 46.4 °F 40.4 °F 44.6 °F 93% 30.17 in 10.0 mi SSE 13.8 mph 20.7 mph 0.01 in   Overcast
8:15 PM 48.2 °F - 44.6 °F 87% 30.16 in 10.0 mi SSE 11.5 mph 24.2 mph N/A   Overcast
8:35 PM 48.2 °F - 44.6 °F 87% 30.16 in 10.0 mi SSE 11.5 mph 18.4 mph N/A   Overcast
8:55 PM 48.2 °F - 44.6 °F 87% 30.16 in 10.0 mi South 12.7 mph 23.0 mph N/A   Overcast
9:15 PM 50.0 °F - 44.6 °F 82% 30.16 in 10.0 mi SSE 10.4 mph - N/A   Overcast
9:35 PM 50.0 °F - 44.6 °F 82% 30.17 in 10.0 mi South 12.7 mph 18.4 mph N/A   Overcast
9:55 PM 50.0 °F - 44.6 °F 82% 30.17 in 10.0 mi South 12.7 mph 24.2 mph N/A   Overcast
10:15 PM 50.0 °F - 44.6 °F 82% 30.17 in 10.0 mi South 13.8 mph 26.5 mph N/A Rain Light Rain
10:35 PM 50.0 °F - 44.6 °F 82% 30.17 in 10.0 mi South 20.7 mph 26.5 mph N/A Rain Rain
10:55 PM 50.0 °F - 46.4 °F 87% 30.16 in 10.0 mi South 19.6 mph 26.5 mph 0.01 in Rain Rain
11:15 PM 50.0 °F - 46.4 °F 87% 30.16 in 10.0 mi South 19.6 mph 26.5 mph 0.01 in Rain Light Rain
11:35 PM 50.0 °F - 46.4 °F 87% 30.16 in 10.0 mi South 16.1 mph 29.9 mph 0.02 in Rain Rain
11:55 PM 50.0 °F - 46.4 °F 87% 30.16 in 10.0 mi South 25.3 mph 33.4 mph 0.02 in Rain Light Rain